Regional Weather Roundup
Issued by NWS

Home | Current Version | Previous Version | Graphics & Text | Print | Product List | Glossary On
Versions: 1 2 3 4 5 6 7 8 9 10 11 12 13 14 15 16 17 18 19 20 21 22 23 24 25 26 27 28 29 30 31 32 33 34 35 36 37 38 39 40 41 42 43 44 45 46 47 48 49 50
000
ASUS43 KLMK 192110
RWRKY
KENTUCKY REGIONAL WEATHER ROUNDUP
NATIONAL WEATHER SERVICE LOUISVILLE KY
500 PM EDT SAT AUG 19 2017

NOTE "FAIR" INDICATES FEW OR NO CLOUDS BELOW 12,000 FEET
WITH NO SIGNIFICANT WEATHER AND/OR OBSTRUCTIONS TO VISIBILITY.

KYZ001>023-026-027-061>063-070>075-192200-
WESTERN AND SOUTH CENTRAL KENTUCKY

CITY           SKY/WX    TMP DP  RH WIND       PRES   REMARKS
PADUCAH        SUNNY     94  66  39 MISG      29.92F HX  97
HENDERSON      SUNNY     88  72  58 W6        29.94F HX  94
OWENSBORO      SUNNY     89  72  56 W6        29.94F HX  96
HOPKINSVILLE   SUNNY     90  70  51 SW10      29.94F HX  95
BOWLING GREEN  SUNNY     89  66  46 VRB5      29.95F HX  91
GLASGOW        SUNNY     88  65  46 SW7       29.97S HX  90
$$

KYZ024-025-028>034-038-045-046-053-192200-
NORTH CENTRAL KENTUCKY

CITY           SKY/WX    TMP DP  RH WIND       PRES   REMARKS
LOUISVILLE/SDF MOSUNNY   89  64  43 W9        29.93F HX  90
LOUISVILLE/LOU SUNNY     89  63  41 W10       29.94S HX  90
FORT KNOX      MOSUNNY   88  67  49 SW7       29.94F HX  90
$$

KYZ035>037-039>044-047>052-055>060-089>105-192200-
NORTHEAST KENTUCKY

CITY           SKY/WX    TMP DP  RH WIND       PRES   REMARKS
LEXINGTON      SUNNY     87  64  46 SW9       29.97F
COVINGTON      MOSUNNY   87  67  51 W9        29.93F HX  90
FRANKFORT      SUNNY     87  65  47 VRB7      29.95S
$$

KYZ054-064>069-076>088-106>120-192200-
SOUTHEAST KENTUCKY

CITY           SKY/WX    TMP DP  RH WIND       PRES   REMARKS
JACKSON        MOSUNNY   84  67  56 VRB3      29.99F
LONDON         SUNNY     85  62  46 SW5       29.99F
SOMERSET       SUNNY     84  63  48 W8        29.99F
MIDDLESBORO    SUNNY     86  67  52 SE6       29.99F
MONTICELLO     CLEAR     86  69  56 W17       30.00F HX  90
$$





USA.gov is the U.S. government's official web portal to all federal, state and local government web resources and services.